Location: Unspecified
(64.9000°N, 0.0000°E)
Time: 20:13:44
(UTC+00:00)

A-11 Canister half - Pass Details

Date: 16 June 2019
Orbit: 1526 x 1683 km, 47.3° (Epoch: 21 July)

Event Time Altitude Azimuth Distance (km) Brightness Sun altitude
Rises 09:03:20 0° 244° (WSW) 4,684 11.3 39.6°
Reaches altitude 10° 09:06:59 10° 233° (SW) 3,696 11.0 39.9°
Maximum altitude 09:14:09 26° 181° (S) 2,650 11.0 40.5°
Drops below altitude 10° 09:21:22 10° 130° (SE) 3,717 12.2 41.1°
Sets 09:25:03 0° 119° (ESE) 4,716 12.4 41.4°
